Regional Weather Roundup
Issued by NWS Lake Charles, LA

Current Version | Previous Version | Text Only | Print | Product List | Glossary On
Versions: 1 2 3 4 5 6 7 8 9 10 11 12 13 14 15 16 17 18 19 20 21 22 23 24 25 26 27 28 29 30 31 32 33 34 35 36 37 38 39 40 41 42 43 44 45 46 47 48 49 50
855
ASUS44 KLCH 230710
RWRLCH
REGIONAL WEATHER ROUNDUP
NATIONAL WEATHER SERVICE LAKE CHARLES LA
100 AM CST MON JAN 23 2017

Note: "fair" indicates few or no clouds below 12,000 feet with no
significant weather and/or obstructions to visibility.


ACROSS SOUTHEAST TEXAS

CITY           SKY/WX    TMP DP  RH WIND       PRES   REMARKS
BEAUMONT       PTCLDY    55  39  54 NW13      29.84S
BEAUMONT CITY  FAIR      56  39  52 NW12G18   29.86F
ORANGE         SUNNY     57  40  54 NW12      29.86R
JASPER         CLEAR     57  40  52 NW12G23   29.87S
$$

ACROSS CENTRAL LOUISIANA

CITY           SKY/WX    TMP DP  RH WIND       PRES   REMARKS
LEESVILLE      CLEAR     55  42  61 NW13      29.79R
FULLERTON      FAIR      56  37  49 VRB7G21   29.76S
ALEXANDRIA INT CLEAR     53  39  59 NW21G30   29.74S
ESLER FIELD    CLEAR     53  42  66 NW12G24   29.74R
DERIDDER       FAIR      56  38  52 NW13G26   29.82S
OAKDALE        SUNNY     56  37  48 NW14G26   29.77S
OPELOUSAS      FAIR      55  42  62 NW15G24   29.74F
$$

ACROSS SOUTHWEST AND SOUTH CENTRAL LOUISIANA

CITY           SKY/WX    TMP DP  RH WIND       PRES   REMARKS
SULPHUR        SUNNY     56  40  54 NW12      29.82R
LAKE CHARLES   CLEAR     57  42  57 NW17G24   29.80R
CHENNAULT INT  CLEAR     57  40  52 NW17G28   29.80R
CAMERON PHI    SUNNY     57  43  58 NW12G20   29.82R
DEQUINCY       FAIR      56  39  53 NW14      29.82R
JENNINGS       FAIR      57  41  54 NW17G31   30.05R
LAFAYETTE      CLEAR     58  44  60 NW18G26   29.74R
NEW IBERIA     LGT RAIN  57  42  57 NW24G32   29.74R
ABBEVILLE      FAIR      55  45  67 NW14G24   29.75S
PATTERSON      CLOUDY    59  46  62 NW16G24   29.72S
SALT POINT     NOT AVBL
$$

SELECTED SITES ACROSS THE REGION

CITY           SKY/WX    TMP DP  RH WIND       PRES   REMARKS
HOUSTON BUSH   PTCLDY    57  38  48 NW9       29.93R
HOUSTON HOBBY  PTCLDY    59  38  45 NW12      29.92R
GALVESTON      CLEAR     59  44  57 W12       29.91R
COLLEGE STAT   CLEAR     52  38  58 NW8       29.95S
CONROE         PTCLDY    54  38  54 NW9       29.92R
HUNTSVILLE     PTCLDY    54  36  50 NW7       29.93R
LUFKIN         CLEAR     52  38  58 NW9       29.87F
SHREVEPORT     CLEAR     53  38  56 NW15G24   29.81F
MONROE         CLOUDY    54  45  71 NW21G29   29.72R
NATCHEZ MS     CLOUDY    55  46  71 NW16G28   29.67R
BATON ROUGE    CLOUDY    57  48  72 NW15G24   29.69R
N.O. INTL ARPT CLOUDY    58  50  75 NW21G28   29.66R
SLIDELL        CLOUDY    57  51  80 W8G20     29.60R
$$

MARINE REPORTS

STATION/POSITION TIME  SKY/WX   TEMP    WIND        PRES    VSBY
                                AIR SEA DIR/SP/G
                 (UTC)          (F)     (DEG/KT/KT) (MB)    (MI)
BUOY 30 S HIGH I 0650            63 65  320/ 21/ 27 1011.5R
WVE H/P(F/S)=  4/ 4

SEA RIM ST PARK  0600            56     310/ 10/ 13 1011.6R
PORT ARTHUR      0648               63  320/ 12/ 25 1010.6R
SABINE PASS N    0648            58 66  310/ 11/ 16 1012.1R
TEXAS POINT      NOT AVBL
CALCASIEU PASS   0648            57 62  320/ 14/ 17   N/A
LK CHARLES BEACH 0648            59 62              1009.3R
MARSH ISLAND     NOT AVBL
FRESH WATER LOCK 0648            59 65  290/ 19/ 25 1008.2R
AMERADA PASS     0648            59 56  280/ 19/ 23 1006.0F
$$




USA.gov is the U.S. government's official web portal to all federal, state and local government web resources and services.